Regional Weather Roundup
Issued by NWS

Home | Current Version | Previous Version | Text Only | Print | Product List | Glossary Off
Versions: 1 2 3 4 5 6 7 8 9 10 11 12 13 14 15 16 17 18 19 20 21 22 23 24 25 26 27 28 29 30 31 32 33 34 35 36 37 38 39 40 41 42 43 44 45 46 47 48 49 50

422
ASUS45 KCYS 270910
RWRWY

WYOMING REGIONAL WEATHER ROUNDUP
NATIONAL WEATHER SERVICE CHEYENNE WY
300 AM MDT WED JUL 27 2016

NOTE:  "FAIR" INDICATES FEW OR NO CLOUDS BELOW 12,000 FEET
WITH NO SIGNIFICANT WEATHER AND/OR OBSTRUCTIONS TO VISIBILITY.

WYZ001-271000-
YELLOWSTONE NATIONAL PARK

CITY           SKY/WX    TMP DP  RH WIND       PRES   REMARKS
LK YELLOWSTONE   N/A     49  38  65 NW3       30.37F
W YELLOWSTONE  NOT AVBL

$$
WYZ002>013-054>058-071-098>099-271000-
NORTHERN WYOMING

CITY           SKY/WX    TMP DP  RH WIND       PRES   REMARKS
JACKSON        FAIR      54  36  50 NE6       30.25S
CODY           FAIR      64  41  42 S3        30.17S
GREYBULL       FAIR      70  47  43 NW5       30.07F
WORLAND        FAIR      64  51  62 CALM      30.10R
SHERIDAN       FAIR      66  51  58 CALM      30.08F
BUFFALO        MOCLDY    69  49  48 NW12      30.11F
GILLETTE       MOCLDY    64  56  75 S15       30.09F
HULETT         FAIR      61  59  94 CALM      30.16S
NEWCASTLE      FAIR      63  54  72 N7        30.15S

$$
WYZ014>020-022>026-101>103-271000-
CENTRAL WYOMING

CITY           SKY/WX    TMP DP  RH WIND       PRES   REMARKS
BIG PINEY      FAIR      50  30  46 N3        30.27S
PINEDALE       FAIR      46  34  61 NW6       30.29R
DUBOIS         CLOUDY    52  32  46 NW14      30.30S HAZE
LANDER         FAIR      68  42  38 SW8       30.17F
RIVERTON       FAIR      64  40  41 NW7       30.18R
CASPER         FAIR      64  54  69 NE21G26   30.17F
DOUGLAS          N/A    N/A N/A N/A MISG      30.16S

$$
WYZ021-027>030-104>119-271000-
SOUTHERN WYOMING

CITY           SKY/WX    TMP DP  RH WIND       PRES   REMARKS
EVANSTON       FAIR      63  18  17 SW6       30.30S
KEMMERER         N/A     54  32  43 CALM      30.30S
FORT BRIDGER   FAIR      65  23  19 W10       30.30S
ROCK SPRINGS   FAIR      60  31  33 VRB3      30.25R
DIXON          FAIR      57  40  51 CALM      30.27S
RAWLINS        FAIR      66  36  32 N8        30.27R
SARATOGA       FAIR      63  37  39 SE16G24   30.27F
LARAMIE        MOCLDY    59  34  39 SE5       30.28F
CHEYENNE       FAIR      59  45  59 CALM      30.21F
TORRINGTON     FAIR      66  58  75 CALM      30.09S
PINE BLUFFS    FAIR      54  46  76 CALM      30.16S

$$




USA.gov is the U.S. government's official web portal to all federal, state and local government web resources and services.